Tacoma Narrows, WA
on Sunday, November 11, 2012

Sunday
Previous Day Next Day
Daily Summary
 ActualAverageRecord
Temperature
Mean Temperature °F °F  
Max Temperature 45°F 49°F 59°F (1999)
Min Temperature 35°F 41°F 30°F (2000)
Degree Days
Heating Degree Days 25    
Moisture
Dew Point 36°F   
Average Humidity 81    
Maximum Humidity 93    
Minimum Humidity 65    
Precipitation
Precipitation 0.76 in in in ()
Wind
Wind Speed 1 mph   
Max Wind Speed 6 mph   
Max Gust Speed mph   
Visibility 8 miles   
Events Rain   
Averages and records for this station are not official NWS values.
Key: T is trace of precipitation, MM is missing value
Source: NWS Daily Summary
Seasonal Weather Averages
Time(PST)TemperatureDew PointHumidity Pressure Visibility Wind DirectionWind SpeedGust SpeedPrecipitationEvents Conditions
12:53 AM 35.1°F 30.0°F 82% 30.24 in 10.0 miles Calm Calm - N/A   Clear
1:53 AM 35.1°F 28.9°F 78% 30.24 in 10.0 miles Calm Calm - N/A   Partly Cloudy
2:06 AM 35.6°F 28.4°F 75% 30.24 in 10.0 miles Calm Calm - N/A   Mostly Cloudy
2:53 AM 36.0°F 28.9°F 76% 30.23 in 10.0 miles Calm Calm - N/A   Overcast
3:41 AM 37.4°F 28.4°F 70% 30.21 in 10.0 miles ESE 3.5 mph - N/A   Mostly Cloudy
3:53 AM 37.0°F 28.9°F 73% 30.22 in 10.0 miles ESE 3.5 mph - N/A   Overcast
4:53 AM 37.0°F 28.0°F 70% 30.23 in 10.0 miles Calm Calm - N/A   Mostly Cloudy
6:53 AM 37.0°F 28.9°F 73% 30.22 in 10.0 miles Calm Calm - N/A   Overcast
7:53 AM 37.0°F 30.0°F 76% 30.23 in 10.0 miles Calm Calm - N/A   Overcast
8:53 AM 39.0°F 28.0°F 65% 30.23 in 10.0 miles Calm Calm - N/A   Overcast
9:53 AM 39.0°F 30.9°F 73% 30.23 in 10.0 miles Calm Calm - 0.01 in Rain Light Rain
10:53 AM 41.0°F 32.0°F 70% 30.23 in 10.0 miles Calm Calm - 0.00 in   Overcast
11:53 AM 43.0°F 34.0°F 71% 30.22 in 10.0 miles Calm Calm - 0.00 in Rain Light Rain
12:53 PM 44.1°F 37.9°F 79% 30.21 in 8.0 miles Calm Calm - 0.00 in Rain Light Rain
1:53 PM 44.1°F 37.9°F 79% 30.18 in 8.0 miles Calm Calm - 0.03 in Rain Light Rain
2:53 PM 43.0°F 39.9°F 89% 30.17 in 7.0 miles Calm Calm - 0.04 in Rain Light Rain
3:53 PM 44.1°F 39.9°F 85% 30.16 in 5.0 miles SSE 5.8 mph - 0.08 in Rain Light Rain
4:53 PM 44.1°F 41.0°F 89% 30.14 in 7.0 miles SSE 5.8 mph - 0.11 in Rain Light Rain
5:53 PM 44.1°F 41.0°F 89% 30.11 in 7.0 miles Variable 3.5 mph - 0.10 in Rain Light Rain
6:53 PM 45.0°F 42.1°F 90% 30.10 in 7.0 miles Calm Calm - 0.08 in Rain Light Rain
7:00 PM 44.6°F 42.8°F 93% 30.09 in 7.0 miles Calm Calm - N/A Rain Light Rain
7:53 PM 44.1°F 42.1°F 93% 30.09 in 6.0 miles Calm Calm - 0.07 in Rain Light Rain
8:51 PM 44.6°F 42.8°F 93% 30.09 in 7.0 miles ENE 3.5 mph - 0.03 in Rain Light Rain
8:53 PM 44.1°F 42.1°F 93% 30.09 in 6.0 miles Calm Calm - 0.04 in Rain Light Rain
9:53 PM 45.0°F 42.1°F 90% 30.09 in 6.0 miles Calm Calm - 0.11 in Rain Light Rain
10:53 PM 45.0°F 42.1°F 90% 30.08 in 10.0 miles Calm Calm - 0.08 in Rain Light Rain
11:53 PM 45.0°F 42.1°F 90% 30.08 in 9.0 miles Calm Calm - 0.01 in Rain Light Rain
Moon Phase
Nov. 11 Nov. 13 Nov. 20 Nov. 28 Dec. 06
Sunrise:07:09 AM (PST) Moon Rise:04:21 AM (PST)11/11
Sunset:04:38 PM (PST) Moon Set:03:12 PM (PST)11/11

Copyright © 2014 The Weather Underground, Inc.